Find Starlink 34517

NORAD ID: 64595 Int'l Des: 2025-137 Owner: SPXS Country: US Constellation: starlink operational
LEOCIRCULAR

現在のビュー

3D地球を読み込み中...

About Starlink 34517

Starlink 34517 (NORAD 64595) is a starlink constellation satellite (v2 mini) launched Jun 25, 2025 by SPXS of US. It operates in LEO, CIRCULAR orbit with a mass of 575.00 kg.

次回通過

Passes for default location (London). Set your location on the main map for personalized predictions.

高度履歴

Loading altitude history...

軌道要素

1 64595U 25137B 26263.95841903 .00016150 00000-0 48804-3 0 9995
2 64595 53.1552 145.2412 0000258 34.8767 325.2253 15.34401668 70671
Epoch: Sep 20, 2026 • Age: 7 hours

現在のステータス

高度 481.3 km
遠地点 / 近地点 N/A
速度 7.62 km/s
衛星直下点 -53.13°S, 49.05°W
打ち上げ日 Jun 25, 2025
運用期間 1.2 years
タイプ internet

技術仕様

分類 Payload
質量 575.00 kg
乾燥質量 530.00 kg
長さ 0.30 m
スパン 29.00 m
形状 ? Box + pan
製造者 SPXS
バスタイプ Starlink V2MO
フェーズステータス In Orbit
所有者/国 SPXS/US

Most Searched